Weather History for K2C8 - July, 2013

Change the Weather History Date:

Wednesday, July 31, 2013

  Actual Average (KGAF) Record (KGAF)
Temperature  
Mean Temperature 63 °F -  
Max Temperature 73 °F 83 °F 96 °F (1955)
Min Temperature 53 °F 56 °F 45 °F (1960)
Degree Days  
Heating Degree Days 2    
Growing Degree Days 13 (Base 50)    
Moisture  
Dew Point 51 °F    
Average Humidity 64    
Maximum Humidity 94    
Minimum Humidity 41    
Precipitation  
Precipitation 0.00 in - - ()
Sea Level Pressure  
Sea Level Pressure 30.02 in    
Wind  
Wind Speed 10 mph (WNW)    
Max Wind Speed 21 mph    
Max Gust Speed 28 mph    
Visibility 10 miles    
Events      
Averages and records for this station are not official NWS values.
T = Trace of Precipitation, MM = Missing Value Source: NWS Daily Summary

Daily Weather History Graph

Daily Weather History Graph

Search for Another Location

Airport or City:

Trip Planner

Search our weather history database for the weather conditions in past years. The results will help you decide how hot, cold, wet, or windy it might be!

Date:

Astronomy

Jul. 31, 2013 Rise Set
Actual Time 6:03 AM CDT 9:09 PM CDT
Civil Twilight 5:25 AM CDT 9:46 PM CDT
Nautical Twilight 4:36 AM CDT 10:35 PM CDT
Astronomical Twilight 3:35 AM CDT 11:35 PM CDT
Moon 1:00 AM CDT (7/31) 4:28 PM CDT (7/31)
Length of Visible Light 16h 21m
Length of Day
15h 06m
Waning Crescent, 31% of the Moon is Illuminated
Jul 31
Waning Crescent
Aug 6
New
Aug 14
First Quarter
Aug 20
Full
Aug 28
Last Quarter

Hourly Weather History & Observations

Time (CDT) Temp. Dew Point Humidity Pressure Visibility Wind Dir Wind Speed Gust Speed Precip Events Conditions
12:15 AM 59.0 °F 55.4 °F 88% 30.03 in 10.0 mi Calm Calm - N/A   Partly Cloudy
12:35 AM 59.0 °F 55.4 °F 88% 30.03 in 10.0 mi West 3.5 mph - N/A   Clear
12:55 AM 59.0 °F 55.4 °F 88% 30.04 in 10.0 mi West 6.9 mph - N/A   Clear
1:15 AM 60.8 °F 55.4 °F 82% 30.03 in 10.0 mi West 9.2 mph - N/A   Clear
1:55 AM 60.8 °F 55.4 °F 82% 30.03 in 10.0 mi West 10.4 mph - N/A   Clear
2:15 AM 60.8 °F 55.4 °F 82% 30.02 in 10.0 mi West 6.9 mph - N/A   Clear
2:35 AM 59.0 °F 55.4 °F 88% 30.02 in 10.0 mi West 8.1 mph - N/A   Clear
2:55 AM 59.0 °F 53.6 °F 82% 30.03 in 10.0 mi West 6.9 mph - N/A   Partly Cloudy
3:15 AM 59.0 °F 53.6 °F 82% 30.03 in 10.0 mi West 8.1 mph - N/A   Clear
3:35 AM 57.2 °F 53.6 °F 88% 30.03 in 10.0 mi WNW 9.2 mph - N/A   Clear
3:55 AM 57.2 °F 53.6 °F 88% 30.03 in 10.0 mi WNW 9.2 mph - N/A   Clear
4:15 AM 57.2 °F 53.6 °F 88% 30.03 in 10.0 mi WNW 9.2 mph - N/A   Clear
4:35 AM 55.4 °F 53.6 °F 94% 30.02 in 10.0 mi WNW 8.1 mph - N/A   Clear
4:55 AM 55.4 °F 51.8 °F 88% 30.03 in 10.0 mi WNW 8.1 mph - N/A   Clear
5:15 AM 55.4 °F 50.0 °F 82% 30.03 in 10.0 mi West 8.1 mph - N/A   Clear
5:35 AM 55.4 °F 50.0 °F 82% 30.04 in 10.0 mi West 8.1 mph - N/A   Clear
5:55 AM 53.6 °F 50.0 °F 88% 30.04 in 10.0 mi West 9.2 mph - N/A   Clear
6:15 AM 53.6 °F 50.0 °F 88% 30.04 in 10.0 mi West 8.1 mph - N/A   Clear
6:35 AM 53.6 °F 50.0 °F 88% 30.05 in 10.0 mi West 10.4 mph - N/A   Clear
6:55 AM 55.4 °F 50.0 °F 82% 30.05 in 10.0 mi West 10.4 mph - N/A   Clear
7:15 AM 55.4 °F 50.0 °F 82% 30.05 in 10.0 mi West 12.7 mph - N/A   Clear
7:35 AM 57.2 °F 50.0 °F 77% 30.06 in 10.0 mi WNW 12.7 mph - N/A   Clear
7:55 AM 57.2 °F 50.0 °F 77% 30.06 in 10.0 mi WNW 11.5 mph - N/A   Clear
8:15 AM 59.0 °F 50.0 °F 72% 30.06 in 10.0 mi WNW 11.5 mph - N/A   Clear
8:35 AM 59.0 °F 50.0 °F 72% 30.06 in 10.0 mi WNW 12.7 mph - N/A   Clear
8:55 AM 60.8 °F 51.8 °F 72% 30.06 in 10.0 mi WNW 9.2 mph - N/A   Clear
9:15 AM 62.6 °F 50.0 °F 63% 30.06 in 10.0 mi WNW 13.8 mph - N/A   Clear
9:35 AM 62.6 °F 50.0 °F 63% 30.06 in 10.0 mi WNW 16.1 mph 19.6 mph N/A   Clear
9:55 AM 64.4 °F 50.0 °F 59% 30.05 in 10.0 mi WNW 16.1 mph 20.7 mph N/A   Clear
10:15 AM 64.4 °F 50.0 °F 59% 30.05 in 10.0 mi NW 16.1 mph 24.2 mph N/A   Clear
10:35 AM 64.4 °F 50.0 °F 59% 30.05 in 10.0 mi NW 17.3 mph 26.5 mph N/A   Clear
10:55 AM 66.2 °F 50.0 °F 56% 30.05 in 10.0 mi NW 20.7 mph 26.5 mph N/A   Clear
11:15 AM 66.2 °F 50.0 °F 56% 30.05 in 10.0 mi NW 17.3 mph 24.2 mph N/A   Clear
11:35 AM 68.0 °F 50.0 °F 52% 30.05 in 10.0 mi NW 16.1 mph 25.3 mph N/A   Partly Cloudy
11:55 AM 68.0 °F 50.0 °F 52% 30.05 in 10.0 mi WNW 17.3 mph 26.5 mph N/A   Clear
12:15 PM 69.8 °F 50.0 °F 49% 30.04 in 10.0 mi WNW 19.6 mph 27.6 mph N/A   Partly Cloudy
12:35 PM 69.8 °F 48.2 °F 46% 30.04 in 10.0 mi NNW 15.0 mph 23.0 mph N/A   Partly Cloudy
12:55 PM 69.8 °F 50.0 °F 49% 30.04 in 10.0 mi NW 17.3 mph 25.3 mph N/A   Partly Cloudy
1:15 PM 71.6 °F 50.0 °F 46% 30.03 in 8.0 mi WNW 15.0 mph 21.9 mph N/A   Scattered Clouds
1:35 PM 71.6 °F 50.0 °F 46% 30.02 in 10.0 mi WNW 12.7 mph 23.0 mph N/A   Mostly Cloudy
1:55 PM 73.4 °F 48.2 °F 41% 30.03 in 10.0 mi WNW 18.4 mph 25.3 mph N/A   Mostly Cloudy
2:15 PM 71.6 °F 48.2 °F 43% 30.03 in 10.0 mi NW 17.3 mph 24.2 mph N/A   Mostly Cloudy
2:35 PM 71.6 °F 48.2 °F 43% 30.03 in 10.0 mi NW 18.4 mph 25.3 mph N/A   Scattered Clouds
2:55 PM 71.6 °F 48.2 °F 43% 30.03 in 10.0 mi NW 16.1 mph 19.6 mph N/A   Mostly Cloudy
3:15 PM 71.6 °F 50.0 °F 46% 30.03 in 10.0 mi WNW 17.3 mph 23.0 mph N/A   Mostly Cloudy
3:35 PM 71.6 °F 48.2 °F 43% 30.03 in 10.0 mi WNW 13.8 mph 19.6 mph N/A   Mostly Cloudy
3:55 PM 73.4 °F 50.0 °F 44% 30.02 in 10.0 mi NW 15.0 mph 21.9 mph N/A   Partly Cloudy
4:15 PM 73.4 °F 50.0 °F 44% 30.02 in 10.0 mi WNW 16.1 mph 23.0 mph N/A   Clear
4:35 PM 73.4 °F 50.0 °F 44% 30.02 in 10.0 mi NW 16.1 mph 21.9 mph N/A   Scattered Clouds
4:55 PM 71.6 °F 50.0 °F 46% 30.01 in 10.0 mi WNW 10.4 mph 19.6 mph N/A   Scattered Clouds
5:15 PM 73.4 °F 48.2 °F 41% 30.02 in 10.0 mi WNW 19.6 mph 24.2 mph N/A   Partly Cloudy
5:35 PM 73.4 °F 48.2 °F 41% 30.01 in 10.0 mi WNW 16.1 mph 21.9 mph N/A   Clear
5:55 PM 73.4 °F 50.0 °F 44% 30.01 in 10.0 mi WNW 13.8 mph 20.7 mph N/A   Clear
6:15 PM 73.4 °F 48.2 °F 41% 30.00 in 10.0 mi WNW 16.1 mph 20.7 mph N/A   Clear
6:35 PM 73.4 °F 48.2 °F 41% 30.00 in 10.0 mi WNW 15.0 mph 20.7 mph N/A   Clear
6:55 PM 71.6 °F 48.2 °F 43% 30.00 in 10.0 mi WNW 9.2 mph 18.4 mph N/A   Clear
7:15 PM 71.6 °F 48.2 °F 43% 30.00 in 10.0 mi WNW 11.5 mph - N/A   Clear
7:35 PM 71.6 °F 48.2 °F 43% 29.99 in 10.0 mi NW 10.4 mph - N/A   Clear
7:55 PM 68.0 °F 50.0 °F 52% 29.99 in 10.0 mi WNW 8.1 mph - N/A   Clear
8:15 PM 68.0 °F 50.0 °F 52% 29.98 in 10.0 mi West 6.9 mph - N/A   Clear
8:35 PM 68.0 °F 50.0 °F 52% 29.98 in 10.0 mi West 6.9 mph - N/A   Clear
8:55 PM 66.2 °F 50.0 °F 56% 29.98 in 10.0 mi West 6.9 mph - N/A   Clear
9:15 PM 64.4 °F 50.0 °F 59% 29.99 in 10.0 mi West 6.9 mph - N/A   Clear
9:35 PM 62.6 °F 50.0 °F 63% 29.99 in 10.0 mi West 5.8 mph - N/A   Clear
9:55 PM 60.8 °F 50.0 °F 68% 29.99 in 10.0 mi West 5.8 mph - N/A   Clear
10:15 PM 59.0 °F 50.0 °F 72% 29.99 in 10.0 mi West 4.6 mph - N/A   Clear
10:35 PM 59.0 °F 50.0 °F 72% 29.99 in 10.0 mi West 5.8 mph - N/A   Clear
10:55 PM 59.0 °F 50.0 °F 72% 30.00 in 10.0 mi West 8.1 mph - N/A   Clear
11:15 PM 57.2 °F 50.0 °F 77% 29.99 in 10.0 mi West 6.9 mph - N/A   Clear
11:35 PM 57.2 °F 50.0 °F 77% 29.99 in 10.0 mi West 6.9 mph - N/A   Clear
11:55 PM 57.2 °F 50.0 °F 77% 29.99 in 10.0 mi West 8.1 mph - N/A   Clear